Location: ??????
(38.3184°N, 23.6932°E)
Time: 20:30:20
(UTC+00:00)

Tiangong - Visible Passes

Search period start: 09 December 2022 00:00
Search period end: 19 December 2022 00:00
Orbit: 386 x 392 km, 41.5° (Epoch: 09 December)

Date Brightness Start Highest point End Pass type
(mag) Time Alt. Az. Time Alt. Az. Time Alt. Az.
09 Dec -2.1 16:27:52 10° WNW 16:31:03 80° SSW 16:32:05 39° ESE visible
10 Dec -2.1 15:29:35 10° WNW 15:32:45 70° NNE 15:35:56 10° E visible
10 Dec -0.2 17:06:47 10° W 17:09:25 27° SW 17:09:25 27° SW visible
11 Dec -1.1 16:08:15 10° W 16:11:19 45° SSW 16:14:22 10° SE visible
12 Dec 0.9 16:47:43 10° WSW 16:49:33 14° SW 16:51:23 10° S visible
13 Dec 0.3 15:48:39 10° W 15:51:19 24° SSW 15:53:59 10° SSE visible
